Tracking 35055 objects as of 18-Aug-2026
HD Live streaming from Space Station
objects crossing your sky now

SALYUT 7 DEB


SALYUT 7 DEB is no longer on orbit


NORAD ID: 14485
Int'l Code: 1982-033AM
Launch date: April 19, 1982
Source: Commonwealth of Independent States (former USSR) (CIS)
Launch site: TYURATAM MISSILE AND SPACE COMPLEX (TTMTR)
Decay date: 1983-11-17

Note: This is SATELLITE DEBRIS
Your satellite tracking list
Your tracking list is empty




NASA's NSSDC Master Catalog

Two Line Element Set (TLE):
1 14485U 82033 AM 83320.77023283  .06691036 +58896-5 +10470-1 0  9991
2 14485 051.6135 045.9573 0009335 038.8762 321.2831 16.03183956091093
Source of the keplerian elements: AFSPC